星链-31915 (STARLINK-31915 )

导读 | 星芒AI

STARLINK-31915 是 SpaceX Starlink 项目中的一颗低轨通信卫星,属于第三代 Starlink 卫星(v1.5)。该卫星于 2023 年 11 月发射,运行在约 550 公里的轨道高度,旨在为全球用户提供高速互联网服务。它采用先进的推进系统和激光通信技术,提高网络效率并减少延迟。Starlink 卫星群致力于构建覆盖全球的宽带网络,尤其服务于偏远地区。STARLINK-31915 是该计划中众多卫星之一,对实现 SpaceX 的全球互联网愿景具有重要意义。

基本信息
目录编号:
59796
目录名称:
STARLINK-31915
国际标识:
2024-093Q
轨道中心:
EARTH
卫星名称:
星链-31915
卫星全名:
星链-31915 (STARLINK-31915 )
卫星状态:
已陨落 最后检测时间 2024-06-04
发射日期:
2024-05-18 UTC
国别 :
美国 (US)
星等 :
--
轨道信息
数据来源 国际轨道数据
星历时间: 2024-06-04T10:14:26+0800
轨道信息已过期521天
半长轴: 6558.863km
偏心率: 0.0006538
轨道倾角: 42.989°
近地点辐角 334.870°
升交点赤经 275.464°
平近点角 141.713°
近地点: 176.439km
远地点: 185.017km
周期: 88.105分钟
每日圈数: 16.34406
详细信息
固有亮度:
5
最大亮度:
1.5
卫星平台:
Starlink v2.0 mini
覆盖范围:
全球
运营商:
太空探索技术公司
运营商所在国:
美国
制造商(研发单位):
太空探索技术公司
制造商所在国:
美国
使用方式:
暂无
卫星简介
星链(Starlink)计划是由太空探索技术公司(SpaceX)提出的一个巨型低轨卫星互联网星座项目,计划在2019年至2024年间在太空搭建由约1.2万颗卫星组成的“星链”网络,其中1584颗将部署在地球上空550千米处的近地轨道,并从2020年开始工作。该卫星已陨落。